PEGASUS DEB

Satellite information

Favourite Embed

Satellite Type and Status

DEBRISIN ORBIT

Key statistics

Satellite PEGASUS DEB at a glance.

Uptime

11373

Days in orbit

Revolutions

≈ 14.6

Per day

Orbit

LEO

Low Earth Orbit

Inclination

82.0

Latest

Satellite identification and parameters

Extended collection of information and parameters for PEGASUS DEB.

Object identification

Identified? True

Debris? True

Object name: PEGASUS DEB

International designator: 1994-029QF

Object number (NORAD): 24378

Object ID (CCSDS): 24378

Country: UNITED STATES OF AMERICA (US)

Current information (Y/N): Y

RCS size: SMALL

Orbital parameters

Period: 98.756 minutes

Inclination: 82.0263 deg

SMA: 7077.314 km

Apoapsis: 813.85 km

Periapsis: 584.508 km

RAAN: 220.5646 deg

Eccentricy: 0.0162026

Argument of periapsis: 200.8098 deg

Mean anomaly: 158.6459 deg

Mean motion: 14.5814283 rev/day

Mean motion (dot): 0.00000653 rev/day2

B* drag term: 0.00011443 1/REarth

Two-line elements (TLE)

Creation date: July 7, 2025, 6:34 p.m.

Reference frame: TEME

Reference center: EARTH

Epoch: July 7, 2025, 12:13 p.m. UTC

TLE line 0: 0 PEGASUS DEB

TLE line 1: 1 24378U 94029QF 25188.50964957 .00000653 00000-0 11443-3 0 9997

TLE line 2: 2 24378 82.0263 220.5646 0162026 200.8098 158.6459 14.58142830648413

Live tracking on map

Real-time ground track for satellite PEGASUS DEB.

In-orbit conjunctions

A list of the most updated potential collisions computed for object PEGASUS DEB.

Target Orbit TCA Probability of collision Miss distance Type
IRIDIUM 33 DEB LEO 2025-06-28 07:55:10 0.0001127152 656.0 (m) DEBRIS
SAUDISAT 1B LEO 2025-02-21 13:01:56 0.0006009976 964.0 (m) PAYLOAD

Associated space launch

PEGASUS DEB was lifted into orbit during the mission ‘Pegasus HAPS | Space Test Experiments Platform 2 (STEP-2)’, on board a Pegasus HAPS space rocket.

The launch took place on May 19, 1994, 5:03 p.m. from Edwards Air Force Base.

For more information about the launch, click the button.

Launch to space Pegasus HAPS | Space Test Experiments Platform 2 (STEP-2)
Pegasus HAPS | Space Test Experiments Platform 2 (STEP-2)

Agency: N/A

Status: Launch Successful

Launch date: May 19, 1994, 5:03 p.m. UTC

Rocket: Pegasus HAPS

Launch pad: Edwards Air Force Base

Location: Air launch to orbit

...

Latest news about this satellite

There are no fresh news available about this satellite. Check back as we update our databases every day.


Newsletter sign-up

Weekly statistics, charts and insights to help you stay on top of the space industry.